This demonstration page uses our WeatherBlox Daily Observations layout. Learn more.

Left ArrowRight Arrow

Hourly Observations for June 17, 2017

Temp ( °F °C ) Dew Point ( °F °C ) Humidity (%) Winds ( mph kmh ) Pressure ( in mb ) Visibility ( mi km ) Precip ( " mm )
12:53 am 00:53 Cloudy 60 15.6 44 6.7 56 56 W 15 24 29.73 1007 10 16 0.00 0.00
1:53 am 01:53 Cloudy 58 14.4 44 6.7 60 60 SW 8 13 29.75 1007 10 16 0.00 0.00
2:53 am 02:53 Cloudy 58 14.4 43 6.1 58 58 WSW 9 15 29.75 1007 10 16 0.00 0.00
3:53 am 03:53 Cloudy 55 12.8 43 6.1 64 64 WSW 12 19 29.78 1008 10 16 0.00 0.00
4:53 am 04:53 Cloudy 54 12.2 44 6.7 69 69 WSW 10 17 29.79 1009 10 16 0.00 0.00
5:53 am 05:53 Mostly Cloudy 54 12.2 47 8.3 77 77 WNW 8 13 29.83 1010 10 16 0.00 0.00
6:53 am 06:53 Mostly Cloudy 55 12.8 47 8.3 74 74 WNW 17 28 29.86 1011 10 16 0.00 0.00
7:53 am 07:53 Cloudy with Light Rain 57 13.9 46 7.8 67 67 WNW 15 24 29.88 1012 10 16 0.00 0.03
8:53 am 08:53 Mostly Cloudy 60 15.6 46 7.8 60 60 NW 15 24 29.91 1013 10 16 0.00 0.03
9:53 am 09:53 Mostly Cloudy 64 17.8 46 7.8 52 52 WNW 16 26 29.92 1013 10 16 0.00 0.00
10:53 am 10:53 Mostly Cloudy 66 18.9 45 7.2 47 47 WNW 17 28 29.92 1013 10 16 0.00 0.00
11:53 am 11:53 Partly Cloudy 68 20 43 6.1 40 40 WNW 18 30 29.93 1014 10 16 0.00 0.00
12:53 pm 12:53 Partly Cloudy 69 20.6 42 5.6 38 38 NW 18 30 29.93 1014 10 16 0.00 0.00
1:53 pm 13:53 Mostly Cloudy 72 22.2 39 3.9 30 30 W 17 28 29.93 1014 10 16 0.00 0.00
2:53 pm 14:53 Mostly Cloudy 73 22.8 38 3.3 28 28 WNW 21 33 29.93 1014 10 16 0.00 0.00
3:53 pm 15:53 Partly Cloudy 70 21.1 38 3.3 31 31 NW 16 26 29.94 1014 10 16 0.00 0.00
4:53 pm 16:53 Partly Cloudy 70 21.1 39 3.9 32 32 W 16 26 29.94 1014 10 16 0.00 0.03
5:53 pm 17:53 Mostly Sunny 72 22.2 41 5 33 33 WNW 15 24 29.94 1014 10 16 0.00 0.00
6:53 pm 18:53 Mostly Sunny 69 20.6 39 3.9 33 33 WNW 14 22 29.95 1014 10 16 0.00 0.00
7:53 pm 19:53 Cloudy 68 20 40 4.4 36 36 WNW 8 13 29.94 1014 10 16 0.00 0.00
8:53 pm 20:53 Cloudy 64 17.8 42 5.6 45 45 NNW 5 7 29.95 1014 10 16 0.00 0.00
9:53 pm 21:53 Partly Cloudy 59 15 42 5.6 54 54 Calm 29.95 1014 10 16 0.00 0.00
10:53 pm 22:53 Clear 52 11.1 45 7.2 77 77 Calm 29.96 1015 10 16 0.00 0.00
11:53 pm 23:53 Clear 50 10 45 7.2 83 83 NW 3 6 29.96 1014 10 16 0.00 0.00

Powered by AerisWeather